Location: Bay Creek Structure Number 5 Dam
(37.4851°N, 88.6884°W)
Time: 00:55:17
(UTC+00:00)

CZ-4C R/B - Pass Details

Date: 13 October 2019
Orbit: 652 x 1350 km, 63.4° (Epoch: 13 November)

Event Time Altitude Azimuth Distance (km) Brightness Sun altitude
Rises 23:31:55 0° 332° (NNW) 3,860 5.9 -3.0°
Reaches altitude 10° 23:34:36 10° 339° (NNW) 3,000 5.2 -3.6°
Maximum altitude 23:41:33 44° 50° (NE) 1,661 3.4 -4.9°
Drops below altitude 10° 23:49:19 10° 121° (ESE) 3,353 4.8 -6.5°
Sets 23:52:27 0° 127° (SE) 4,353 5.4 -7.1°
